logo
App data

Space Hotel

One of your ship's engines breaks down while on a trade route. You are forced to make a landing in the nearest star system Merope, constellation Pleiades. Your task is to find a way to the main hangar and escape on the ship of those who remained there forever.
Store | Hub | SteamDB
Developer: NHLislive Publisher: Man Hockey
Genre: Indie
Languages: English
Tags: Indie (21), Horror (13), Stealth (12)
Category: Single-player, Steam Trading Cards
Release date: Jan 4, 2017
Price: $1.99
Old userscore: 38% Owners: 0 .. 20,000
Followers: 238
Peak concurrent players yesterday: 1

Steam Spy is still in beta, so expect major bugs.

Owners data:

Access restricted.

This feature is only available to users with special access rights. Sorry.

If you want to proceed, you need to register or log in first and then back Steam Spy on Patreon. Look for Indie or Pro pledge.

Don't forget to use the same email as on Steam Spy!

Audience in 2 weeks:

Access restricted.

This feature is only available to users with special access rights. Sorry.

If you want to proceed, you need to register or log in first and then back Steam Spy on Patreon. Look for Indie or Pro pledge.

Don't forget to use the same email as on Steam Spy!

Peak daily concurrent players:

CCU data courtesy of SteamDB. Used with permission.

Hourly concurrent players:

Followers over time

Access restricted.

This feature is only available to users with special access rights. Sorry.

If you want to proceed, you need to register or log in first and then back Steam Spy on Patreon. Look for Indie or Pro pledge.

Don't forget to use the same email as on Steam Spy!

Views for top 50 videos on YouTube for this game:

Games similar to this one:

# Game Release date
Price
Score rank
(Userscore / Metascore)
Owners
Players
Playtime (Median)
1 Sentinel 4: Dark Star Aug 13, 2015 $6.99N/A (N/A)6,0000%00:00 (00:00)
2 Cursed Sight Aug 3, 2015 $2.49N/A (N/A)17,0000%00:00 (00:00)
3 Asphyxia Aug 4, 2015 $2.99N/A (N/A)36,0000%00:00 (00:00)
4 Egg Returns Home May 5, 2015 $0.99N/A (N/A)33,0000%00:00 (00:00)
5 Alpha Runner Sep 2, 2015 $0.99N/A (N/A)136,0000%00:00 (00:00)
6 Power of Love Jul 21, 2015 $0.49N/A (N/A)35,0000%00:00 (00:00)
7 Stay Alight Mar 2, 2015 $3.99N/A (N/A)54,0000%00:00 (00:00)
8 Way of Gold and Steel Aug 17, 2015 $1.97N/A (N/A)20,0000%00:00 (00:00)
9 Streets of Chaos Jan 23, 2015 N/AN/A (N/A)147,0000%00:00 (00:00)
10 Koala Kids Jun 22, 2015 $0.67N/A (N/A)35,0000%00:00 (00:00)
11 Terraform May 8, 2015 $2.99N/A (N/A)6,0000%00:00 (00:00)
12 Star Chronicles: Delta Quadrant Jul 7, 2015 $0.49N/A (N/A)305,0000%00:00 (00:00)
13 Pester Jan 25, 2013 $0.49N/A (N/A)102,0000%00:00 (00:00)
14 Job the Leprechaun Jul 31, 2015 $2.99N/A (N/A)41,0000%00:00 (00:00)
15 Earthtongue Apr 27, 2015 $4.99N/A (N/A)76,0000%00:00 (00:00)
16 Wanda - A Beautiful Apocalypse Jun 3, 2016 $1.99N/A (N/A)170,0000%00:00 (00:00)
17 The Reject Demon: Toko Chapter 0 — Prelude May 9, 2015 $1.49N/A (N/A)24,0000%00:00 (00:00)
18 RePete Nov 1, 2015 $1.99N/A (N/A)11,0000%00:00 (00:00)
19 Without Within 2 Nov 9, 2015 $2.49N/A (N/A)16,0000%00:00 (00:00)
20 Hustle Cat Mar 16, 2016 $3.99N/A (N/A)60,0000%00:00 (00:00)
21 Anode Oct 5, 2015 $1.59N/A (N/A)26,0000%00:00 (00:00)
22 Burst Mar 14, 2016 N/AN/A (N/A)78,0000%00:00 (00:00)
23 Star Sky - ブルームーン Oct 23, 2015 $1.59N/A (N/A)17,0000%00:00 (00:00)
24 In Between Aug 21, 2015 $4.79N/A (N/A/68%)39,0000%00:00 (00:00)
25 The Last NightMary - A Lenda do Cabeça de Cuia Nov 2, 2015 $0.51N/A (N/A)57,0000%00:00 (00:00)
26 Robot vs Birds Zombies Jun 1, 2013 $0.99N/A (N/A)664,0000%00:00 (00:00)
27 Herding Dog Dec 25, 2015 $1.99N/A (N/A)11,0000%00:00 (00:00)
28 Collisions Jul 28, 2015 $1.99N/A (N/A)46,0000%00:00 (00:00)
29 Swapperoo Dec 18, 2015 $4.99N/A (N/A)8,0000%00:00 (00:00)
30 The Deletion Jul 30, 2015 $0.59N/A (N/A)12,0000%00:00 (00:00)
31 Goodnight Butcher Dec 18, 2015 $1.99N/A (N/A)27,0000%00:00 (00:00)
32 Dance Magic Feb 15, 2016 $2.49N/A (N/A)10,0000%00:00 (00:00)
33 Broken Dreams Feb 19, 2016 $0.49N/A (N/A)175,0000%00:00 (00:00)
34 12 Labours of Hercules IV: Mother Nature (Platinum Edition) Dec 25, 2015 $2.09N/A (N/A)32,0000%00:00 (00:00)
35 Bloop Reloaded Feb 6, 2015 FreeN/A (N/A)197,0006.67%00:03 (00:01)
36 Luxor Evolved Mar 1, 2012 $4.99N/A (N/A)59,0000%00:00 (00:00)
37 Quantum Rush Champions Dec 4, 2014 $2.99N/A (N/A)30,0000%00:00 (00:00)
38 Oozi: Earth Adventure Dec 5, 2013 $1.99N/A (N/A/66%)65,0000%00:00 (00:00)
39 Sinister City Oct 18, 2014 $0.49N/A (N/A)187,0000%00:00 (00:00)
40 Particulars Nov 19, 2014 $5.99N/A (N/A/74%)29,0000%00:00 (00:00)
41 The Jackbox Party Pack Nov 26, 2014 $12.49N/A (N/A)295,0000%00:00 (00:00)
42 Girls Like Robots Feb 14, 2014 $5.59N/A (N/A)26,0000%00:00 (00:00)
43 1931: Scheherazade at the Library of Pergamum Mar 26, 2015 $3.74N/A (N/A)19,0000%00:00 (00:00)
44 Farm for your Life Jun 5, 2013 $3.99N/A (N/A)73,0000%00:00 (00:00)
45 12 Labours of Hercules Mar 23, 2015 $2.09N/A (N/A)201,0000%00:00 (00:00)
46 Grapple Mar 9, 2015 $0.69N/A (N/A)39,0000%00:00 (00:00)
47 Bob Was Hungry Aug 19, 2015 $0.99N/A (N/A)57,0000%00:00 (00:00)
48 Paranormal State: Poison Spring Nov 26, 2013 $9.99N/A (N/A)59,0000%00:00 (00:00)
49 Pixel Puzzles 2: Birds Feb 20, 2015 $2.99N/A (N/A)222,0000%00:00 (00:00)
50 Tribloos 2 Jan 12, 2013 $4.99N/A (N/A)96,0000%00:00 (00:00)
51 Thrillville: Off the Rails Jul 8, 2009 $3.49N/A (N/A/70%)28,0000%00:00 (00:00)
52 Archimedes Oct 6, 2016 $2.99N/A (N/A)36,0000%00:00 (00:00)
53 Magma Tsunami Jun 1, 2016 $0.99N/A (N/A)397,0000%00:00 (00:00)
54 GO AWAY, THERE'S KUMIS OVER THERE! Oct 28, 2016 $0.99N/A (N/A)61,0000%00:00 (00:00)
55 Color Syndrome Jun 20, 2016 $0.99N/A (N/A)91,0000%00:00 (00:00)
56 The Survey Oct 27, 2016 $0.99N/A (N/A)20,0000%00:00 (00:00)
57 Hide and Secret Treasure of the Ages Mar 15, 2007 $1.94N/A (N/A)23,0000%00:00 (00:00)
58 [the Sequence] Mar 30, 2016 $1.79N/A (N/A)13,0000%00:00 (00:00)
59 Beeftacular Aug 26, 2016 $0.59N/A (N/A)19,0000%00:00 (00:00)
60 Forgotten, Not Lost - A Kinetic Novel Apr 2, 2016 $1.99N/A (N/A)41,0000%00:00 (00:00)
61 ConflictCraft Dec 8, 2016 $1.49N/A (N/A)27,00020%04:36 (01:32)
62 Love in the Glen Jun 9, 2016 $2.99N/A (N/A)20,0000%00:00 (00:00)
63 Clock Simulator Jul 20, 2016 $0.49N/A (N/A)20,0000%00:00 (00:00)
64 One Last Chance Apr 7, 2016 $1.99N/A (N/A)27,0000%00:00 (00:00)
65 Carrie's Order Up! Sep 13, 2016 $2.99N/A (N/A)8,0000%00:00 (00:00)
66 Hyposphere May 5, 2016 $0.5N/A (N/A)234,0000%00:00 (00:00)
67 Turbo Pug 3D Sep 20, 2016 $0.99N/A (N/A)319,0000%00:00 (00:00)
68 King's Guard TD Jun 8, 2016 $0.89N/A (N/A)184,0000%00:00 (00:00)
69 Neon Prism Nov 18, 2016 $4.99N/A (N/A)92,0000%00:00 (00:00)
70 iREC Jan 16, 2017 FreeN/A (N/A)50,0000%00:00 (00:00)
71 Winexy Jan 13, 2017 $0.49N/A (N/A)50,0000%00:00 (00:00)
72 Ninja Stealth 2 Jan 30, 2017 $0.49N/A (N/A)41,0000%00:00 (00:00)
73 Dungeon Painter Studio Feb 26, 2017 $14.99N/A (N/A)50,0000%00:00 (00:00)

Tags over time:

Access restricted.

This feature is only available to users with special access rights. Sorry.

If you want to proceed, you need to register or log in first and then back Steam Spy on Patreon. Look for Indie or Pro pledge.

Don't forget to use the same email as on Steam Spy!

Owners of this game also own:

Access restricted.

This feature is only available to users with special access rights. Sorry.

If you want to proceed, you need to register or log in first and then back Steam Spy on Patreon. Look for Indie or Pro pledge.

Don't forget to use the same email as on Steam Spy!

Playtime distribution:

Access restricted.

This feature is only available to users with special access rights. Sorry.

If you want to proceed, you need to register or log in first and then back Steam Spy on Patreon. Look for Indie or Pro pledge.

Don't forget to use the same email as on Steam Spy!

Playtime (2 weeks):

Access restricted.

This feature is only available to users with special access rights. Sorry.

If you want to proceed, you need to register or log in first and then back Steam Spy on Patreon. Look for Indie or Pro pledge.

Don't forget to use the same email as on Steam Spy!

User reviews:

Login required.

Please register or log in to see this information.